Hot Springs, VA

4:02 AM EDT on July 22, 2017 (GMT -0400)
Ingalls

Weather History for KHSP - January, 2002

Change the Weather History Date:

Tuesday, January 1, 2002

  Actual Average Record
Temperature  
Mean Temperature 14 °F -  
Max Temperature 23 °F 34 °F 53 °F (2007)
Min Temperature 6 °F 21 °F 6 °F (2002)
Degree Days  
Heating Degree Days 50    
Moisture  
Dew Point 6 °F    
Average Humidity 79    
Maximum Humidity 100    
Minimum Humidity 42    
Precipitation  
Precipitation 0.00 in - - ()
Sea Level Pressure  
Sea Level Pressure 29.95 in    
Wind  
Wind Speed 16 mph (WNW)    
Max Wind Speed 20 mph    
Max Gust Speed 22 mph    
Visibility 10 miles    
Events      
Averages and records for this station are not official NWS values.
T = Trace of Precipitation, MM = Missing Value Source: NWS Daily Summary

Daily Weather History Graph

Daily Weather History Graph

Search for Another Location

Airport or City:

Trip Planner

Search our weather history database for the weather conditions in past years. The results will help you decide how hot, cold, wet, or windy it might be!

Date:

Astronomy

Jan. 01, 2002 Rise Set
Actual Time 7:35 AM EST 5:10 PM EST
Civil Twilight 7:05 AM EST 5:40 PM EST
Nautical Twilight 6:33 AM EST 6:13 PM EST
Astronomical Twilight 6:01 AM EST 6:44 PM EST
Moon 7:48 PM EST (1/1) 9:38 AM EST (1/1)
Length of Visible Light 10h 34m
Length of Day
9h 35m
Waning Gibbous, 93% of the Moon is Illuminated
Jan 1
Waning Gibbous
Jan 5
Last Quarter
Jan 13
New
Jan 21
First Quarter
Jan 28
Full

Hourly Weather History & Observations

Time (EST) Temp. Windchill Dew Point Humidity Pressure Visibility Wind Dir Wind Speed Gust Speed Precip Events Conditions
12:01 AM 10.4 °F -7.7 °F 6.8 °F 85% 29.88 in 10.0 mi WNW 18.4 mph - N/A   Clear
12:21 AM 10.4 °F -7.2 °F 6.8 °F 85% 29.88 in 10.0 mi WNW 17.3 mph - N/A   Clear
12:41 AM 10.4 °F -6.6 °F 6.8 °F 85% 29.88 in 10.0 mi WNW 16.1 mph - N/A   Clear
1:01 AM 10.4 °F -7.7 °F 6.8 °F 85% 29.87 in 10.0 mi WNW 18.4 mph - N/A   Clear
1:21 AM 10.4 °F -8.2 °F 6.8 °F 85% 29.88 in 10.0 mi WNW 19.6 mph - N/A   Clear
1:41 AM 8.6 °F -9.5 °F 8.6 °F 100% 29.88 in 10.0 mi WNW 17.3 mph - N/A   Clear
2:01 AM 8.6 °F -10.0 °F 6.8 °F 92% 29.88 in 10.0 mi WNW 18.4 mph - N/A   Clear
2:21 AM 8.6 °F -9.5 °F 8.6 °F 100% 29.89 in 10.0 mi WNW 17.3 mph - N/A   Clear
2:41 AM 8.6 °F -10.0 °F 6.8 °F 92% 29.89 in 10.0 mi WNW 18.4 mph - N/A   Clear
3:01 AM 8.6 °F -10.0 °F 6.8 °F 92% 29.90 in 10.0 mi WNW 18.4 mph - N/A   Clear
3:23 AM 8.6 °F -8.9 °F 6.8 °F 92% 29.89 in 10.0 mi WNW 16.1 mph - N/A   Clear
3:41 AM 6.8 °F -10.7 °F 6.8 °F 100% 29.89 in 10.0 mi WNW 15.0 mph - N/A   Clear
4:01 AM 6.8 °F -12.4 °F 6.8 °F 100% 29.90 in 10.0 mi WNW 18.4 mph - N/A   Clear
4:21 AM 6.8 °F -12.4 °F 6.8 °F 100% 29.90 in 10.0 mi WNW 18.4 mph - N/A   Clear
4:41 AM 6.8 °F -11.3 °F 6.8 °F 100% 29.90 in 10.0 mi WNW 16.1 mph - N/A   Clear
5:01 AM 6.8 °F -11.8 °F 6.8 °F 100% 29.90 in 10.0 mi WNW 17.3 mph - N/A   Clear
5:21 AM 6.8 °F -11.8 °F 6.8 °F 100% 29.90 in 10.0 mi WNW 17.3 mph - N/A   Clear
5:43 AM 6.8 °F -10.7 °F 6.8 °F 100% 29.91 in 10.0 mi WNW 15.0 mph - N/A   Clear
6:01 AM 6.8 °F -11.8 °F 6.8 °F 100% 29.91 in 10.0 mi WNW 17.3 mph - N/A   Clear
6:21 AM 6.8 °F -10.7 °F 6.8 °F 100% 29.91 in 10.0 mi WNW 15.0 mph - N/A   Clear
6:41 AM 6.8 °F -11.8 °F 6.8 °F 100% 29.91 in 10.0 mi WNW 17.3 mph - N/A   Clear
7:01 AM 6.8 °F -11.8 °F 6.8 °F 100% 29.91 in 10.0 mi WNW 17.3 mph - N/A   Clear
7:21 AM 6.8 °F -11.8 °F 6.8 °F 100% 29.92 in 10.0 mi WNW 17.3 mph - N/A   Clear
7:41 AM 6.8 °F -10.7 °F 6.8 °F 100% 29.93 in 10.0 mi WNW 15.0 mph - N/A   Clear
8:01 AM 6.8 °F -11.3 °F 6.8 °F 100% 29.94 in 10.0 mi WNW 16.1 mph - N/A   Clear
8:21 AM 8.6 °F -8.9 °F 6.8 °F 92% 29.95 in 10.0 mi WNW 16.1 mph - N/A   Clear
8:41 AM 8.6 °F -9.5 °F 6.8 °F 92% 29.95 in 10.0 mi WNW 17.3 mph - N/A   Clear
9:01 AM 8.6 °F -8.9 °F 8.6 °F 100% 29.97 in 10.0 mi WNW 16.1 mph - N/A   Clear
9:21 AM 8.6 °F -8.3 °F 6.8 °F 92% 29.98 in 10.0 mi WNW 15.0 mph - N/A   Clear
9:41 AM 10.4 °F -6.0 °F 6.8 °F 85% 29.99 in 10.0 mi WNW 15.0 mph - N/A   Clear
10:01 AM 10.4 °F -6.0 °F 8.6 °F 92% 29.98 in 10.0 mi WNW 15.0 mph - N/A   Clear
10:21 AM 10.4 °F -5.4 °F 8.6 °F 92% 29.98 in 10.0 mi WNW 13.8 mph - N/A   Clear
10:43 AM 12.2 °F -2.5 °F 8.6 °F 85% 29.98 in 10.0 mi WNW 12.7 mph 18.4 mph N/A   Clear
11:01 AM 12.2 °F -2.5 °F 10.4 °F 92% 29.98 in 10.0 mi NW 12.7 mph - N/A   Clear
11:21 AM 14.0 °F 1.2 °F 10.4 °F 86% 29.98 in 10.0 mi WNW 10.4 mph - N/A   Clear
11:41 AM 15.8 °F 2.1 °F 10.4 °F 79% 29.98 in 10.0 mi WNW 12.7 mph - N/A   Clear
12:01 PM 15.8 °F 1.4 °F 10.4 °F 79% 29.97 in 10.0 mi WNW 13.8 mph - N/A   Clear
12:21 PM 17.6 °F 2.7 °F 8.6 °F 68% 29.97 in 10.0 mi WNW 16.1 mph - N/A   Clear
12:43 PM 17.6 °F 4.3 °F 8.6 °F 68% 29.97 in 10.0 mi WNW 12.7 mph 19.6 mph N/A   Clear
1:01 PM 19.4 °F 6.6 °F 8.6 °F 63% 29.97 in 10.0 mi WNW 12.7 mph - N/A   Clear
1:21 PM 19.4 °F 7.2 °F 8.6 °F 63% 29.96 in 10.0 mi NW 11.5 mph 17.3 mph N/A   Clear
1:41 PM 21.2 °F 10.1 °F 8.6 °F 58% 29.96 in 10.0 mi NW 10.4 mph - N/A   Clear
2:01 PM 21.2 °F 10.1 °F 8.6 °F 58% 29.96 in 10.0 mi NW 10.4 mph 18.4 mph N/A   Clear
2:23 PM 23.0 °F 13.1 °F 6.8 °F 50% 29.97 in 10.0 mi NW 9.2 mph - N/A   Clear
2:41 PM 23.0 °F 11.7 °F 5.0 °F 46% 29.97 in 10.0 mi NNW 11.5 mph - N/A   Clear
3:01 PM 23.0 °F 11.7 °F 3.2 °F 43% 29.97 in 10.0 mi NNW 11.5 mph 17.3 mph N/A   Clear
3:21 PM 23.0 °F 12.4 °F 3.2 °F 43% 29.98 in 10.0 mi NNW 10.4 mph - N/A   Clear
3:43 PM 21.2 °F 8.3 °F 3.2 °F 46% 29.99 in 10.0 mi NW 13.8 mph 19.6 mph N/A   Clear
4:01 PM 21.2 °F 8.9 °F 1.4 °F 42% 30.00 in 10.0 mi NW 12.7 mph 21.9 mph N/A   Clear
4:21 PM 21.2 °F 10.1 °F 1.4 °F 42% 30.00 in 10.0 mi NNW 10.4 mph - N/A   Clear
4:43 PM 19.4 °F 7.9 °F 1.4 °F 46% 30.01 in 10.0 mi NW 10.4 mph - N/A   Clear
5:01 PM 19.4 °F 8.6 °F 1.4 °F 46% 30.02 in 10.0 mi NW 9.2 mph - N/A   Clear
5:21 PM 17.6 °F 6.4 °F 1.4 °F 49% 30.03 in 10.0 mi NW 9.2 mph - N/A   Clear
5:43 PM 15.8 °F 5.1 °F 1.4 °F 53% 30.04 in 10.0 mi NW 8.1 mph - N/A   Clear
6:01 PM 15.8 °F 8.6 °F 3.2 °F 58% 30.05 in 10.0 mi NW 4.6 mph - N/A   Clear
6:23 PM 14.0 °F 2.9 °F 1.4 °F 57% 30.06 in 10.0 mi NW 8.1 mph - N/A   Clear
6:41 PM 14.0 °F 1.2 °F 3.2 °F 62% 30.06 in 10.0 mi NW 10.4 mph - N/A   Clear
7:01 PM 14.0 °F 1.2 °F 3.2 °F 62% 30.07 in 10.0 mi NW 10.4 mph - N/A   Clear
7:21 PM 12.2 °F -1.0 °F 3.2 °F 67% 30.09 in 10.0 mi NW 10.4 mph - N/A   Clear
7:41 PM 12.2 °F -1.0 °F 3.2 °F 67% 30.09 in 10.0 mi NW 10.4 mph - N/A   Clear
8:01 PM 12.2 °F -1.8 °F 3.2 °F 67% 30.10 in 10.0 mi NW 11.5 mph - N/A   Clear
8:21 PM 10.4 °F -5.4 °F 5.0 °F 79% 30.08 in 10.0 mi NNW 13.8 mph - N/A   Clear
8:41 PM 10.4 °F -3.3 °F 5.0 °F 79% 30.09 in 10.0 mi NW 10.4 mph - N/A   Clear
9:01 PM 10.4 °F -3.3 °F 5.0 °F 79% 30.09 in 10.0 mi NW 10.4 mph - N/A   Clear
9:21 PM 10.4 °F -1.5 °F 5.0 °F 79% 30.10 in 10.0 mi NW 8.1 mph - N/A   Clear
9:41 PM 8.6 °F -5.5 °F 6.8 °F 92% 30.10 in 10.0 mi NW 10.4 mph - N/A   Clear
10:01 PM 8.6 °F -3.7 °F 6.8 °F 92% 30.10 in 10.0 mi NW 8.1 mph - N/A   Clear
10:21 PM 8.6 °F -3.7 °F 6.8 °F 92% 30.11 in 10.0 mi NW 8.1 mph - N/A   Clear
10:41 PM 8.6 °F -5.5 °F 6.8 °F 92% 30.10 in 10.0 mi WNW 10.4 mph - N/A   Clear
11:01 PM 8.6 °F -5.5 °F 6.8 °F 92% 30.09 in 10.0 mi NW 10.4 mph - N/A   Clear
11:21 PM 8.6 °F -4.7 °F 6.8 °F 92% 30.10 in 10.0 mi NW 9.2 mph - N/A   Clear
11:41 PM 8.6 °F -4.7 °F 6.8 °F 92% 30.08 in 10.0 mi NW 9.2 mph - N/A   Clear